This is the latest recevied weather packets stored in our database for station/object OK2ILA-3. If no packets are shown the sender has not sent any weather packets the latest 10 day(s).
| Time | Temp. | Humidity | Pressure | Rain* | Wind** | Luminosity | Snow |
|---|---|---|---|---|---|---|---|
| 1777939934 | 12.78° C | 100% | 4352 hPa | 0 mm | - | - | - |
| 1777939328 | 12.78° C | 55% | 0 hPa | 0 mm | - | - | - |
| 1777938720 | 13.33° C | 30% | 0 hPa | 0 mm | - | - | - |
| 1777938117 | 13.33° C | 100% | 0.7 hPa | 0 mm | - | - | - |
| 1777937513 | 13.33° C | 12% | 0.7 hPa | 0 mm | - | - | - |
| 1777936905 | 13.33° C | 2% | 0.4 hPa | 0 mm | - | - | - |
| 1777936302 | 13.33° C | 100% | 0.4 hPa | 0 mm | - | - | - |
| 1777935696 | 13.33° C | 54% | 0.4 hPa | 0 mm | - | - | - |
| 1777935090 | 13.33° C | 37% | 3689.9 hPa | 0 mm | - | - | - |
| 1777934486 | 13.89° C | - | - | 103.89 mm | - | - | - |
| 1777933883 | 14.44° C | 25% | 3689.9 hPa | 0 mm | - | - | - |
| 1777933275 | 14.44° C | 98% | 3689.9 hPa | 0 mm | - | - | - |
| 1777932671 | 13.89° C | 12% | 3689.9 hPa | 0 mm | - | - | - |
| 1777932064 | 14.44° C | 4% | 537.6 hPa | 0 mm | - | - | - |
| 1777931456 | 13.89° C | 96% | 0 hPa | 0 mm | - | - | - |
| 1777930853 | 14.44° C | 12% | 0 hPa | 0 mm | - | - | - |
| 1777930249 | 14.44° C | 100% | 0 hPa | 0 mm | - | - | - |
| 1777929640 | 14.44° C | 12% | 4352 hPa | 0 mm | - | - | - |
| 1777929036 | 14.44° C | 79% | 4352 hPa | 0 mm | - | - | - |
| 1777928431 | 14.44° C | 100% | 8.1 hPa | 0 mm | - | - | - |
| 1777927825 | 14.44° C | 12% | 8.1 hPa | 0 mm | - | - | - |
| 1777927220 | 15° C | 4% | 0 hPa | 0 mm | - | - | - |
| 1777926615 | 15° C | 4% | 0 hPa | 0 mm | - | - | - |
| 1777926009 | 15° C | 79% | 4096 hPa | 0 mm | - | - | - |
| 1777925404 | 15° C | 96% | 4096 hPa | 0 mm | - | - | - |
* Rain latest 24 hours (hover to see other rain measurements)
** Current wind speed in m/s (hover to see current wind gust speed)